Tümü
Kyogle Hospital Airport YXKO Hava Durumu
There is no TAF data available at YXKO. Showing TAF data for YLIS (21 mi GD).
LSY Terminal Alanı Tahmini (YXKO için veri yok)
| Here is the undecoded forecast: 2026/05/04 19:06 YLIS 041906Z 0419/0508 36004KT 2000 BR BKN002 BECMG 0421/0422 30005KT 9999 NSW BKN004 FM050000 27005KT 9999 SCT020 FM050300 11008KT 9999 SCT030 INTER 0506/0508 3000 SHRA BKN012 SCT040TCU PROB30 0419/0423 0300 FG BKN001 RMK T 18 17 23 25 Q 1016 1018 1017 1015 |
There is no METAR data available at YXKO. Showing METAR data for YCAS (18 mi G).
Yakın zamandaki CSI METAR geçmişi (YXKO verisi yok)
| Date | Time (AEST) | Flight Rules | Wind Dir. | Speed | Type | Height AGL (ft) | Visibility | Temp (°C) | Temp (°F) | Dew Point (°C) | Dew Point (°F) | Rel. Humid. | Pressure | Density Altitude | Remarks |
|---|---|---|---|---|---|---|---|---|---|---|---|---|---|---|---|
| 05-May | 06:00 | n/a | 290° | 2 kt | Missing | 19° | 66° | 18° | 64° | 94% | 1017 mb | 453 ft | |||
| 05-May | 05:00 | n/a | 290° | 3 kt | Missing | 19° | 66° | 19° | 66° | 100% | 1017 mb | 453 ft | |||
| 05-May | 04:00 | n/a | 320° | 5 kt | Missing | 19° | 66° | 19° | 66° | 100% | 1016 mb | 483 ft | |||
| 05-May | 03:00 | n/a | 50° | 4 kt | Missing | 19° | 66° | 19° | 66° | 100% | 1016 mb | 483 ft | |||
| 05-May | 02:00 | n/a | 130° | 1 kt | Missing | 18° | 64° | 18° | 64° | 100% | 1017 mb | 333 ft | |||
| 05-May | 01:00 | n/a | Calm | Missing | 18° | 64° | 18° | 64° | 100% | 1017 mb | 333 ft | ||||
| 05-May | 00:00 | n/a | 130° | 1 kt | Missing | 16° | 60° | 16° | 60° | 100% | 1017 mb | 93 ft | |||
| 04-May | 23:00 | n/a | 130° | 4 kt | Missing | 17° | 62° | 17° | 62° | 100% | 1018 mb | 183 ft | |||
| 04-May | 22:00 | n/a | Calm | Missing | 17° | 62° | 17° | 62° | 100% | 1018 mb | 183 ft | ||||
| 04-May | 21:00 | n/a | 130° | 3 kt | Missing | 19° | 66° | 18° | 64° | 94% | 1018 mb | 423 ft | |||
| 04-May | 20:00 | n/a | 130° | 3 kt | Missing | 19° | 66° | 18° | 64° | 94% | 1018 mb | 423 ft | |||
| 04-May | 19:00 | n/a | 110° | 3 kt | Missing | 19° | 66° | 18° | 64° | 94% | 1018 mb | 423 ft | |||
| 04-May | 18:00 | n/a | 110° | 5 kt | Missing | 20° | 68° | 19° | 66° | 94% | 1017 mb | 573 ft | |||
| 04-May | 17:00 | n/a | 100° | 7 kt | Missing | 22° | 71° | 19° | 66° | 83% | 1016 mb | 843 ft | |||
| 04-May | 16:00 | n/a | 100° | 4 kt | Missing | 26° | 78° | 17° | 62° | 58% | 1016 mb | 1.323 ft | |||
| 04-May | 15:00 | n/a | 40° | 2 kt | Missing | 26° | 78° | 17° | 62° | 58% | 1016 mb | 1.323 ft | |||
| 04-May | 14:00 | n/a | 20° | 4 kt | Missing | 26° | 78° | 18° | 64° | 61% | 1016 mb | 1.323 ft | |||
| 04-May | 13:00 | n/a | 350° | 3 kt | Missing | 25° | 77° | 18° | 64° | 65% | 1017 mb | 1.173 ft | |||
| 04-May | 12:00 | n/a | 70° | 3 kt | Missing | 24° | 75° | 19° | 66° | 74% | 1018 mb | 1.023 ft | |||
| 04-May | 11:00 | n/a | 50° | 4 kt | Missing | 22° | 71° | 19° | 66° | 83% | 1019 mb | 754 ft | |||
| 04-May | 10:00 | n/a | 130° | 3 kt | Missing | 21° | 69° | 19° | 66° | 88% | 1020 mb | 604 ft | |||
| 04-May | 09:00 | n/a | 250° | 4 kt | Missing | 20° | 68° | 19° | 66° | 94% | 1020 mb | 484 ft | |||
| 04-May | 08:00 | n/a | Calm | Missing | 18° | 64° | 18° | 64° | 100% | 1020 mb | 244 ft | ||||
| 04-May | 07:00 | n/a | Calm | Missing | 18° | 64° | 18° | 64° | 100% | 1019 mb | 274 ft |
Giriş
| Tarayıcınız desteklenmiyor. tarayıcınızı yükseltin |
